Location: Gwatt
(46.7204°N, 7.6223°E)
Time: 12:09:49
(UTC+00:00)

Transit 2A - Pass Details

Date: 12 May 2021
Orbit: 601 x 958 km, 66.7° (Epoch: 15 June)

Event Time Altitude Azimuth Distance (km) Brightness Sun altitude
Exits shadow 23:59:52 16° 100° (E) 1,625 7.7 -24.4°
Drops below altitude 10° 00:02:03 10° 70° (ENE) 1,968 8.5 -24.4°
Sets 00:04:58 0° 49° (NE) 2,860 9.7 -24.3°
